Regional Weather Roundup
Issued by NWS

Home | Current Version | Previous Version | Graphics & Text | Print | Product List | Glossary On
Versions: 1 2 3 4 5 6 7 8 9 10 11 12 13 14 15 16 17 18 19 20 21 22 23 24 25 26 27 28 29 30 31 32 33 34 35 36 37 38 39 40 41 42 43 44 45 46 47 48 49 50
520
ASUS45 KPSR 231510
RWRAZ

ARIZONA HOURLY REGIONAL WEATHER ROUNDUP
NATIONAL WEATHER SERVICE PHOENIX AZ
800 AM MST THU NOV 23 2017

NOTE: FAIR INDICATES FEW OR NO CLOUDS BELOW 12,000 FEET WITH NO
SIGNIFICANT WEATHER AND/OR OBSTRUCTIONS TO VISIBILITY.

AZZ001>003-036-231600-
NORTHWEST ARIZONA

CITY           SKY/WX    TMP DP  RH WIND       PRES   REMARKS
BULLHEAD CITY  CLEAR     59  36  41 S5        30.11S
KINGMAN        PTCLDY    49  29  46 CALM      30.24R
$$

AZZ004>008-015-016-018-231600-
NORTH CENTRAL ARIZONA

CITY           SKY/WX    TMP DP  RH WIND       PRES   REMARKS
GRAND CANYON   PTCLDY    29  25  85 CALM      30.42S
WILLIAMS       CLEAR     39  23  52 S12       30.40S WCI  32
PRESCOTT       PTCLDY    41  29  62 S6        30.33S
FLAGSTAFF      PTCLDY    30  23  75 CALM      30.43S
PAYSON           N/A     55  30  38 NE8       30.33S
PAGE           PTCLDY    43  30  60 CALM      30.35S
$$

AZZ009>014-017-231600-
NORTHEAST ARIZONA

CITY           SKY/WX    TMP DP  RH WIND       PRES   REMARKS
WINSLOW        PTCLDY    33  20  58 E6        30.40R WCI  28
SAINT JOHNS    PTSUNNY   37  23  56 S5        30.40R WCI  33
WINDOW ROCK    PTCLDY    29  23  78 CALM      30.42R
SHOW LOW       PTCLDY    39  28  65 CALM      30.43S
$$

AZZ540-542>544-546-548-231600-
GREATER PHOENIX AREA

CITY           SKY/WX    TMP DP  RH WIND       PRES   REMARKS
PHOENIX        PTCLDY    61  36  39 SE5       30.09R
BUCKEYE        CLEAR     54  25  32 NW6       30.10S
GLENDALE       PTCLDY    55  36  47 CALM      30.11R
LUKE AFB       CLEAR     57  32  39 N5        30.09R
DEER VALLEY    CLEAR     59  32  36 VRB5      30.10R
SCOTTSDALE     CLEAR     59  38  45 CALM      30.12R
MESA-FALCON    PTCLDY    64  32  29 E6        30.11R
MESA-GATEWAY   CLEAR     54  23  30 SE3       30.12R
CHANDLER       CLEAR     54  32  43 N3        30.11R
$$

AZZ539-553-231600-
SOUTHWEST MARICOPA COUNTY AND PINAL COUNTY

CITY           SKY/WX    TMP DP  RH WIND       PRES   REMARKS
CASA GRANDE    NOT AVBL
$$

AZZ503-504-507>509-231600-
SOUTHEAST ARIZONA

CITY           SKY/WX    TMP DP  RH WIND       PRES   REMARKS
TUCSON         SUNNY     57  20  23 SE10      30.17S
DAVIS-MONTHAN  SUNNY     63  21  20 SE12      30.15R
RYAN FIELD     SUNNY     54  23  30 SE9       30.16S
NOGALES        SUNNY     50  20  30 CALM      30.21S
SIERRA VISTA   SUNNY     56  19  23 SE3       30.28R
DOUGLAS        SUNNY     42  16  34 CALM      30.27R
SAFFORD        SUNNY     47  17  30 E5        30.25R
$$

AZZ532-231600-
SOUTHWEST ARIZONA

CITY           SKY/WX    TMP DP  RH WIND       PRES   REMARKS
YUMA           CLEAR     63  35  35 NE6       30.04S
$$

CAZ041-043-047-048-061-525>527-560>570-231600-
SOUTHERN CALIFORNIA

CITY           SKY/WX    TMP DP  RH WIND       PRES   REMARKS
DOWNTOWN L.A.  CLEAR     69  38  32 N3        30.01S
L.A. AIRPORT   PTCLDY    71  40  32 NE6       30.01S
SAN DIEGO      CLEAR     63  42  46 CALM      30.02R
BURBANK        CLEAR     62  41  46 N6        30.05R
ONTARIO        PTCLDY    61  40  45 NE5       30.06R
RIVERSIDE      CLEAR     63  39  41 NE7       30.06R
PALM SPRINGS   CLEAR     66  40  38 NW9       30.07S
EL CENTRO NAS  CLEAR     57  32  38 W7        30.06R
IMPERIAL       CLEAR     57  35  43 W5        30.03R
BLYTHE         CLEAR     54  30  40 SE5       30.09R
NEEDLES        CLEAR     63  36  36 SW8       30.12R
$$

NVZ020-UTZ003-231600-
SOUTHERN NEVADA-UTAH

CITY           SKY/WX    TMP DP  RH WIND       PRES   REMARKS
LAS VEGAS      PTCLDY    56  37  49 CALM      30.19S
SALT LAKE CITY MOCLDY    49  40  71 SE9       30.26R
$$

NMZ009-TXZ055-231600-
NEW MEXICO-WEST TEXAS

CITY           SKY/WX    TMP DP  RH WIND       PRES   REMARKS
ALBUQUERQUE    CLOUDY    44  28  53 N6        30.37R
EL PASO        MOSUNNY   46  27  47 N6        30.28R
$$


........................KEY........................
SKY/WX - SKY CONDITION/WEATHER
TMP    - TEMPERATURE IN FAHRENHEIT
DP     - DEW POINT IN FAHRENHEIT
RH     - RELATIVE HUMIDITY IN PERCENT
WIND   - DIRECTION AND SPEED IN MILES PER HOUR (MPH)
VRB    - VARIABLE WIND DIRECTION
PRES   - MEAN SEA LEVEL PRESSURE IN INCHES OF MERCURY
         F - FALLING PRESSURE   R - RISING PRESSURE
         S - STEADY PRESSURE
VSB    - VISIBILITY IN MILES
HX     - HEAT INDEX IN FAHRENHEIT
WCI    - WIND CHILL INDEX IN FAHRENHEIT
TC     - TEMPERATURE IN CELSIUS WHICH IS ALSO KNOWN AS
         TEMPERATURE IN CENTIGRADE
AFB    - AIR FORCE BASE
         LUKE AFB IS LUKE AIR FORCE BASE
         DAVIS-MONTHAN IS DAVIS-MONTHAN AIR FORCE BASE
NAS    - NAVAL AIR STATION
         EL CENTRO NAS IS EL CENTRO NAVAL AIR STATION
N/A    - NOT AVAILABLE





USA.gov is the U.S. government's official web portal to all federal, state and local government web resources and services.